[[{"header":{"parameterUnit":"m.s-1","parameterCategory":1,"la1":30.2992,"la2":30.254,"lo1":-89.0895,"lo2":-89.0443,"dy":0.0025,"dx":0.0025,"nx":19,"ny":19,"refTime":"2026-04-01T03:00:00:Z","depth":0,"parameterNumber":2,"parameterNumberName":"U-component_of_WINDS"},"data":[0,0,0,-3.2309,-3.231,-3.2348,-3.2349,-3.2403,-3.2404,0,0,0,0,0,0,0,0,0,0,0,-3.2301,-3.2301,-3.2309,-3.231,-3.2348,-3.2349,-3.2403,-3.2404,0,0,0,0,0,0,0,0,0,0,0,-3.2301,-3.2301,-3.2302,-3.231,-3.2348,-3.2349,-3.2403,-3.2372,0,0,0,0,0,0,0,0,0,0,-3.2333,-3.233,-3.2301,-3.2302,-3.231,-3.2348,-3.2349,-3.237,-3.2374,-3.2388,0,-3.2402,0,-3.2404,-3.2408,-3.2408,0,0,0,-3.2307,-3.2327,-3.2334,-3.2302,-3.2311,-3.2348,-3.233,-3.2372,-3.2376,-3.2393,-3.2403,-3.2405,-3.2405,-3.2408,-3.2409,-3.2503,-3.2503,0,0,-3.2305,-3.231,-3.2331,-3.2337,-3.2332,-3.2329,-3.2331,-3.2375,-3.2386,-3.2403,-3.2406,-3.2406,-3.2409,-3.2409,-3.2502,-3.2503,0,0,0,-3.2301,-3.2308,-3.2314,-3.2335,-3.2341,-3.233,-3.2333,-3.2384,-3.2385,-3.2407,-3.2407,-3.2409,-3.241,-3.2502,-3.2502,-3.2535,0,0,0,-3.2299,-3.2306,-3.2314,-3.2317,-3.2341,-3.2363,-3.2341,-3.2382,-3.2387,-3.2406,-3.2409,-3.241,-3.2501,-3.2502,-3.2533,-3.2549,0,0,0,-3.2297,-3.2306,-3.2313,-3.2317,-3.2334,-3.2362,-3.2366,-3.2383,-3.2387,-3.2408,-3.2411,-3.2501,-3.2502,-3.2531,-3.2546,-3.2575,0,0,0,-3.2296,-3.2341,-3.2313,-3.2363,-3.2334,-3.2383,-3.2366,-3.2402,-3.2424,-3.2409,-3.2501,-3.2502,-3.253,-3.2544,-3.2573,-3.2599,-3.2611,0,0,-3.2355,-3.2348,-3.2377,-3.2353,-3.2409,-3.2377,-3.2437,-3.2452,-3.2449,-3.2485,-3.2487,-3.2534,-3.2546,-3.2574,-3.2678,-3.2688,0,0,0,-3.2397,-3.2418,-3.2432,-3.2453,-3.2467,-3.2479,-3.2485,-3.2491,-3.2521,-3.2469,-3.2553,-3.256,-3.2576,-3.2589,-3.2597,-3.261,-3.2509,-3.2509,-3.2508,-3.2486,-3.2481,-3.2529,-3.2529,-3.255,-3.2556,-3.2573,-3.2582,-3.257,-3.259,-3.26,-3.2664,-3.2679,-3.2685,-3.2699,-3.2615,-3.2615,-3.2615,-3.2615,-3.2571,-3.2599,-3.2584,-3.2624,-3.2619,-3.2653,-3.2661,-3.2652,-3.2682,-3.2656,-3.267,-3.264,-3.2695,-3.2707,-3.2618,-3.2617,-3.2617,-3.2617,-3.2617,-3.2627,-3.264,-3.2647,-3.2678,-3.2703,-3.2702,-3.2732,-3.2726,-3.2721,-3.2735,-3.2745,-3.2744,-3.2742,-3.2741,-3.2741,-3.2741,-3.2741,-3.2742,-3.2742,-3.2682,-3.2689,-3.2715,-3.2735,-3.2748,-3.2765,-3.2773,-3.2786,-3.2799,-3.2792,-3.2792,-3.2778,-3.2702,-3.2682,-3.2745,-3.2745,-3.2744,-3.2744,-3.2744,-3.2767,-3.2747,-3.2788,-3.2801,-3.2823,-3.2848,-3.2842,-3.2869,-3.2879,-3.2894,-3.2878,-3.2823,-3.2815,-3.2808,-3.2792,-3.2879,-3.2879,-3.2879,-3.2879,-3.2813,-3.2809,-3.285,-3.2872,-3.2893,-3.2892,-3.2937,-3.2945,-3.2949,-3.2955,-3.2942,-3.292,-3.2914,-3.2909,-3.2901,-3.2885,-3.2994,-3.2994,-3.2994,-3.2864,-3.2863,-3.2903,-3.2907,-3.2924,-3.2939,-3.2982,-3.3008,-3.3009,-3.2999,-3.2959,-3.2954,-3.2919,-3.2908,-3.2895,-3.2881,-3.2853,0,0]},{"header":{"parameterUnit":"m.s-1","parameterCategory":1,"la1":30.2992,"la2":30.254,"lo1":-89.0895,"lo2":-89.0443,"dy":0.0025,"dx":0.0025,"nx":19,"ny":19,"refTime":"2026-04-01T03:00:00:Z","depth":0,"parameterNumber":3,"parameterNumberName":"V-component_of_WINDS"},"data":[0,0,0,4.2019,4.2021,4.2135,4.2136,4.2279,4.228,0,0,0,0,0,0,0,0,0,0,0,4.1986,4.1987,4.2019,4.2022,4.2135,4.2136,4.2279,4.228,0,0,0,0,0,0,0,0,0,0,0,4.1985,4.1986,4.1988,4.2022,4.2135,4.2136,4.2279,4.2193,0,0,0,0,0,0,0,0,0,0,4.2082,4.2052,4.1986,4.1988,4.2023,4.2135,4.2136,4.2189,4.2198,4.2227,0,4.2255,0,4.227,4.229,4.2291,0,0,0,4.202,4.2045,4.2076,4.1988,4.2024,4.2135,4.2084,4.2194,4.2205,4.224,4.2257,4.2262,4.2273,4.2291,4.2292,4.2471,4.2472,0,0,4.2014,4.2005,4.2068,4.2083,4.2067,4.208,4.2087,4.2201,4.2218,4.2258,4.2266,4.2275,4.2292,4.2293,4.247,4.2471,0,0,0,4.1997,4.2001,4.2029,4.2077,4.2098,4.2083,4.2092,4.2213,4.2223,4.2267,4.2277,4.2293,4.2295,4.2469,4.2471,4.251,0,0,0,4.1993,4.1991,4.2026,4.2022,4.2096,4.2157,4.2101,4.2215,4.2228,4.2276,4.2293,4.2296,4.2468,4.247,4.2507,4.2529,0,0,0,4.1978,4.1989,4.2006,4.2021,4.2071,4.2155,4.2172,4.2218,4.2234,4.2291,4.2296,4.2468,4.247,4.2504,4.2524,4.2577,0,0,0,4.1958,4.2035,4.2007,4.2097,4.207,4.2179,4.2171,4.2252,4.2305,4.2294,4.2468,4.2471,4.2503,4.2522,4.2573,4.262,4.2638,0,0,4.2051,4.2046,4.21,4.2078,4.2191,4.2162,4.2281,4.2335,4.2346,4.2428,4.2433,4.2508,4.2524,4.2576,4.2741,4.2756,0,0,0,4.2126,4.2165,4.2197,4.225,4.2296,4.2339,4.2377,4.2398,4.2469,4.2388,4.254,4.255,4.258,4.2603,4.2615,4.2643,4.248,4.248,4.248,4.2243,4.2258,4.2349,4.2379,4.243,4.2471,4.2514,4.2549,4.2544,4.258,4.2605,4.2704,4.273,4.274,4.2768,4.2629,4.2629,4.263,4.263,4.2382,4.244,4.2438,4.2526,4.2541,4.2613,4.2657,4.2653,4.2722,4.2685,4.2713,4.2673,4.2755,4.2781,4.2633,4.2632,4.2632,4.2631,4.2631,4.2461,4.2492,4.2519,4.2601,4.2661,4.2687,4.2756,4.2765,4.2774,4.2801,4.283,4.2829,4.2832,4.2814,4.2815,4.2815,4.2815,4.2816,4.2816,4.2533,4.2563,4.2622,4.2682,4.2719,4.277,4.2815,4.2851,4.2893,4.2895,4.2895,4.2889,4.2761,4.2729,4.2821,4.282,4.2819,4.2819,4.2819,4.267,4.2642,4.2733,4.2771,4.2844,4.2906,4.2918,4.2992,4.3023,4.3057,4.3046,4.295,4.2944,4.2935,4.2909,4.3042,4.3042,4.3042,4.3042,4.2738,4.2738,4.2836,4.2897,4.2957,4.298,4.3082,4.3119,4.3152,4.3172,4.3154,4.3121,4.311,4.3111,4.3098,4.3074,4.3246,4.3246,4.3246,4.2824,4.2832,4.2918,4.2954,4.3013,4.3063,4.3161,4.323,4.326,4.3255,4.3189,4.3181,4.3126,4.3107,4.3099,4.3078,4.3035,0,0]}]]